[Date Prev][Date Next][Thread Prev][Thread Next] - [Date Index][Thread Index][Author Index]

2 Line ISS Keps 1-2



ISS
1 25544U 98067A   04002.19607295  .00021046  00000-0  20433-3 0  9601
2 25544  51.6301  95.3754 0006481 330.7781 100.2917 15.66266740292128


----
Via the sarex mailing list at AMSAT.ORG courtesy of AMSAT-NA.
To unsubscribe, send "unsubscribe sarex" to Majordomo@amsat.org



AMSAT Top AMSAT Home